WELCOME TO TCFT

Voted One Of The Best Flight Schools In The USA

 

 

Learn More

BECOME AN AIRLINE PILOT

Treasure Coast Flight Training is committed to serving all of your aviation needs as a full service flight academy, aircraft rental facility, and pilot shop

Contact Us

 

 

Questions About Becoming An Airline Pilot?

Get Started

 

 

What Our Graduates Say

 

 

The training I received with Treasure Coast Flight Training prepared me to become a professional pilot

 

Nathan Meisner

Pilot - Cessna Caravan - USA

Professional yet relaxed environment. Truly an enjoyable experience to fly with TCFT

 

Sophia

Certified Flight Instructor - China

The training I needed to get me to where I am now!

 

Enderson Rafael

Pilot - Go Airlines - Brazil

Thank you TCFT for making me an airline pilot!

 

Kyle Barrett

Pilot - GoJet Airlines - USA

Current Conditions

 

Metar

 

KSUA 272147Z 11010KT 7SM SKC 31/27 A3002

 

TAF

 

TAF KSUA 271732Z 2718/2818 VRB05KT P6SM FEW040 FM280300 17004KT P6SM SKC FM280900 22003KT P6SM SKC

 

 

Look No Further. Get Started Today

 

 

Enroll Now